This demonstration page uses our WeatherBlox Daily Observations layout. Learn more.

Left ArrowRight Arrow

44.8408, -93.29828

Hourly Observations for March 18, 2015

Temp ( °F °C ) Dew Point ( °F °C ) Humidity (%) Winds ( mph kmh ) Pressure ( in mb ) Visibility ( mi km ) Precip ( " mm )
12:53 am 00:53 Cloudy 33 0.6 15 -9.4 47 47 W 3 6 30.36 1028 10 16 0.00 0.00
1:53 am 01:53 Cloudy 34 1.1 15 -9.4 46 46 Calm 30.37 1028 10 16 0.00 0.00
2:53 am 02:53 Cloudy 34 1.1 15 -9.4 46 46 Calm 30.37 1028 10 16 0.00 0.00
3:53 am 03:53 Cloudy 33 0.6 16 -8.9 49 49 SSW 3 6 30.37 1029 10 16 0.00 0.00
4:53 am 04:53 Partly Cloudy 32 0 16 -8.9 52 52 SSW 3 6 30.36 1028 10 16 0.00 0.00
5:53 am 05:53 Mostly Cloudy 30 -1.1 17 -8.3 58 58 Calm 30.35 1028 10 16 0.00 0.00
6:53 am 06:53 Mostly Cloudy 32 0 18 -7.8 56 56 Calm 30.35 1028 10 16 0.00 0.00
7:53 am 07:53 Cloudy 31 -0.6 20 -6.7 64 64 Calm 30.35 1028 10 16 0.00 0.00
8:53 am 08:53 Cloudy 34 1.1 18 -7.8 52 52 Calm 30.34 1028 10 16 0.00 0.00
9:53 am 09:53 Cloudy 36 2.2 18 -7.8 48 48 Calm 30.35 1028 10 16 0.00 0.00
10:53 am 10:53 Cloudy 39 3.9 16 -8.9 39 39 Calm 30.34 1028 10 16 0.00 0.00
11:53 am 11:53 Cloudy 42 5.6 14 -10 32 32 Calm 30.34 1027 10 16 0.00 0.00
12:53 pm 12:53 Cloudy 43 6.1 12 -11.1 28 28 Calm 30.32 1027 10 16 0.00 0.00
1:53 pm 13:53 Cloudy 44 6.7 10 -12.2 25 25 VRB 3 6 30.30 1026 10 16 0.00 0.00
2:53 pm 14:53 Cloudy 45 7.2 11 -11.7 25 25 VRB 5 7 30.28 1025 10 16 0.00 0.00
3:53 pm 15:53 Cloudy 45 7.2 10 -12.2 24 24 Calm 30.26 1025 10 16 0.00 0.00
4:53 pm 16:53 Cloudy 45 7.2 11 -11.7 25 25 W 5 7 30.25 1024 10 16 0.00 0.00
5:53 pm 17:53 Cloudy 45 7.2 11 -11.7 25 25 SW 5 7 30.25 1024 10 16 0.00 0.00
6:53 pm 18:53 Cloudy 44 6.7 10 -12.2 25 25 VRB 5 7 30.24 1024 10 16 0.00 0.00
7:53 pm 19:53 Cloudy 43 6.1 17 -8.3 35 35 SSW 8 13 30.25 1024 10 16 0.00 0.00
8:53 pm 20:53 Cloudy 41 5 26 -3.3 55 55 SW 6 9 30.24 1024 10 16 0.00 0.00
9:53 pm 21:53 Cloudy 39 3.9 26 -3.3 60 60 S 3 6 30.24 1024 10 16 0.00 0.00
10:53 pm 22:53 Cloudy 39 3.9 27 -2.8 62 62 WSW 5 7 30.24 1024 10 16 0.00 0.00
11:53 pm 23:53 Cloudy 37 2.8 29 -1.7 73 73 W 5 7 30.24 1024 10 16 0.00 0.00

Powered by AerisWeather